Hlavní strana
METAR-TAF:

METAR-TAF

Letiště :

Dublin, Georgie, Spojené státy americké

zeměpisná šířka: 32-33-52N, zeměpisná délka: 082-59-07W, výška: 94 m

Aktuální stav počasí

Zpráva byla vytvořena před 20 minutami, v 02:15 UTC
Západoseverozápadní vítr 4 kt
Teplota 15°C
Vlhkost vzduchu 88%
Tlak 1022 hPa
Viditelnost: 16.1 km
Zataženo ve výšce 5500 ft

METAR: KDBN 190215Z AUTO 30004KT 10SM OVC055 15/13 A3017 RMK AO2

Čas: 21:35 (02:35 UTC)


TAF: chybějící

Stav a předpovědi počasí z více než 4 000 letišť (zprávy METAR a TAF).

Červené a žluté tečky na mapě představují dostupné meteorologické stanice.

Když kurzor umístíte na tečku, zobrazí se název stanice.

Pak kliknutím zobrazíte stav a předpověď počasí.

Chcete-li změnit mapu, kliknutím na zelené tlačítko se znaménkem +mapu přiblížíte, kliknutím na zelené tlačítko se znaménkem – mapu oddálíte a kliknutím na zelené šipky přejdete na sousední mapy.


METAR-TAF: